Location: Madrid
(40.4167°N, 3.7036°W)
Time: 12:54:12
(UTC+00:00)

ISS - Pass Details

Date: 03 April 2024
Orbit: 413 x 419 km, 51.6° (Epoch: 13 April)

Event Time Altitude Azimuth Distance (km) Brightness Sun altitude
Rises 18:50:49 0° 299° (WNW) 2,358 1.7 -2.5°
Reaches altitude 10° 18:53:01 10° 290° (WNW) 1,493 0.9 -2.9°
Maximum altitude 18:56:04 33° 224° (SW) 725 -2.1 -3.5°
Drops below altitude 10° 18:59:07 10° 159° (SSE) 1,488 -1.3 -4.1°
Sets 19:01:19 0° 149° (SSE) 2,349 -0.4 -4.5°
